Weather in Yaroslavets

Ukraine / Sumi District     51°32′39″N   33°40′17″E
temp.,
°C
wind,
m/s
gust,
m/s
humid.,
%
clouds,
%
prec.,
mm/h
press.,
hPa
HPBL,
m
27 october, wed
wed2700:00+2ssw413718 0.0 1027259
03:00+2ssw5137212 0.0 1026261
06:00+2ssw513775 0.0 1024282
09:00+3sw613800 0.0 1024422
12:00+8sw710690 0.0 1023677
15:00+9wsw685969 0.0 1022821
18:00+7w386846 0.0 1023307
21:00+6w37745 0.0 1023201
28 october, thu
thu2800:00+4w359290 0.0 102376
03:00+4wsw3894100 0.0 1022164
06:00+5sw51289100 0.1 1021289
09:00+7sw61287100 0.9 1020429
12:00+8w51185100 0.3 1020501
15:00+8w5109199 0.9 1020428
18:00+9wnw4109042 0.0 1021354
21:00+8wnw49950 0.0 1022256
29 october, fri
fri2900:00+6nnw39965 0.0 1024191
03:00+5nne34935 0.0 102672
06:00+4nne33895 0.0 102736
09:00+5ne24855 0.0 1029120
12:00+9ene22680 0.0 1029428
15:00+11ese12620 0.0 1029670
18:00+7ese11800 0.0 103010
21:00+6ese22860 0.0 103115
30 october, sat
sat3000:00+5se33890 0.0 103128
03:00+4sse33910 0.0 103234
06:00+3sse33935 0.0 103238
09:00+4sse26905 0.0 1033155
12:00+10s45685 0.0 1032446
15:00+12s45613 0.0 1031697
18:00+8sse33785 0.0 103125
21:00+6sse33830 0.0 103233
31 october, sun
sun3100:00+5s33845 0.0 103236
03:00+4s33830 0.0 103228
05:00+4sse33860 0.0 103133
08:00+4se25800 0.0 1031117
11:00+10sse46610 0.0 1030436
14:00+12sse46570 0.0 1028721
17:00+7se36740 0.0 102772
20:00+6se38760 0.0 1027136